Lamoni, IA

7:21 AM CST on February 10, 2016 (GMT -0600)
Lamoni Municipal

Weather History for KLWD - December, 2012

Change the Weather History Date:

Saturday, December 29, 2012

  Actual Average Record
Temperature  
Mean Temperature 21 °F 24 °F  
Max Temperature 27 °F 33 °F 65 °F (1984)
Min Temperature 14 °F 16 °F -7 °F (1983)
Degree Days  
Heating Degree Days 44 41  
Month to date heating degree days 957 1100  
Since 1 July heating degree days 2153 2348  
Cooling Degree Days 0 0  
Month to date cooling degree days 0 0  
Year to date cooling degree days 1312 946  
Moisture  
Dew Point 13 °F    
Average Humidity 76    
Maximum Humidity 88    
Minimum Humidity 63    
Precipitation  
Precipitation T in 0.04 in 0.27 in (1948)
Month to date precipitation 1.54 1.39  
Sea Level Pressure  
Sea Level Pressure 30.19 in    
Wind  
Wind Speed 11 mph (WNW)    
Max Wind Speed 18 mph    
Max Gust Speed 22 mph    
Visibility 7 miles    
Events Snow    
T = Trace of Precipitation, MM = Missing Value Source: NWS Daily Summary

Daily Weather History Graph

Daily Weather History Graph

Search for Another Location

Airport or City:

Trip Planner

Search our weather history database for the weather conditions in past years. The results will help you decide how hot, cold, wet, or windy it might be!

Date:

Astronomy

Dec. 29, 2012 Rise Set
Actual Time 7:38 AM CST 4:57 PM CST
Civil Twilight 7:08 AM CST 5:27 PM CST
Nautical Twilight 6:33 AM CST 6:02 PM CST
Astronomical Twilight 6:00 AM CST 6:35 PM CST
Moon 6:31 PM CST (12/29) 8:12 AM CST (12/29)
Length of Visible Light 10h 19m
Length of Day
9h 18m
Full, 98% of the Moon is Illuminated
Dec 29
Full
Jan 4
Last Quarter
Jan 11
New
Jan 18
First Quarter
Jan 26
Full

Hourly Weather History & Observations

Time (CST) Temp. Windchill Dew Point Humidity Pressure Visibility Wind Dir Wind Speed Gust Speed Precip Events Conditions
12:53 AM 19.0 °F 7.5 °F 16.0 °F 88% 30.07 in 6.0 mi NW 10.4 mph - N/A   Overcast
1:53 AM 19.0 °F 5.0 °F 15.1 °F 85% 30.09 in 7.0 mi NW 15.0 mph - N/A   Overcast
2:35 AM 17.6 °F 4.3 °F 14.0 °F 86% 30.05 in 7.0 mi NW 12.7 mph - N/A   Overcast
2:53 AM 18.0 °F 6.1 °F 14.0 °F 84% 30.12 in 7.0 mi NW 10.4 mph - N/A   Overcast
3:15 AM 17.6 °F 5.0 °F 12.2 °F 79% 30.07 in 7.0 mi NW 11.5 mph - N/A   Overcast
3:53 AM 17.1 °F 4.3 °F 12.9 °F 84% 30.13 in 7.0 mi NW 11.5 mph - N/A   Overcast
4:07 AM 15.8 °F 0.3 °F 12.2 °F 86% 30.08 in 7.0 mi NW 16.1 mph - N/A   Overcast
4:53 AM 16.0 °F 2.9 °F 12.0 °F 84% 30.15 in 7.0 mi NW 11.5 mph - N/A   Overcast
5:53 AM 14.0 °F -2.0 °F 10.0 °F 84% 30.17 in 8.0 mi NW 16.1 mph - N/A   Overcast
6:07 AM 14.0 °F -0.8 °F 10.4 °F 86% 30.12 in 7.0 mi WNW 13.8 mph - 0.00 in Snow Light Snow
6:53 AM 15.1 °F 1.1 °F 10.9 °F 84% 30.19 in 9.0 mi NW 12.7 mph - 0.00 in   Overcast
7:53 AM 14.0 °F -1.4 °F 10.0 °F 84% 30.21 in 5.0 mi WNW 15.0 mph - 0.00 in   Overcast
8:50 AM 15.8 °F 3.4 °F 10.4 °F 79% 30.17 in 2.5 mi WNW 10.4 mph - 0.00 in Snow Light Snow
8:53 AM 15.1 °F 0.5 °F 10.0 °F 80% 30.23 in 2.5 mi WNW 13.8 mph - 0.00 in Snow Light Snow
9:00 AM 15.8 °F 2.7 °F 10.4 °F 79% 30.18 in 4.0 mi WNW 11.5 mph - 0.00 in Snow Light Snow
9:23 AM 15.8 °F 2.7 °F 10.4 °F 79% 30.18 in 2.0 mi West 11.5 mph - 0.00 in Snow Light Snow
9:49 AM 15.8 °F 2.7 °F 12.2 °F 86% 30.19 in 4.0 mi West 11.5 mph - 0.00 in   Overcast
9:53 AM 17.1 °F 4.3 °F 12.0 °F 81% 30.26 in 4.0 mi WNW 11.5 mph - 0.00 in Snow Light Snow
10:53 AM 18.0 °F 5.4 °F 12.9 °F 81% 30.26 in 6.0 mi West 11.5 mph - 0.00 in   Haze
11:53 AM 19.9 °F 7.3 °F 14.0 °F 78% 30.25 in 8.0 mi West 12.7 mph 18.4 mph N/A   Mostly Cloudy
12:06 PM 19.4 °F 7.9 °F 14.0 °F 80% 30.19 in 9.0 mi West 10.4 mph - N/A   Scattered Clouds
12:53 PM 21.9 °F 11.7 °F 15.1 °F 75% 30.23 in 10.0 mi West 9.2 mph - N/A   Clear
1:53 PM 24.1 °F 13.1 °F 15.1 °F 69% 30.22 in 10.0 mi WSW 11.5 mph - N/A   Clear
2:53 PM 26.1 °F 16.2 °F 16.0 °F 66% 30.23 in 10.0 mi West 10.4 mph - N/A   Clear
3:53 PM 27.0 °F 18.7 °F 16.0 °F 63% 30.24 in 10.0 mi West 8.1 mph - N/A   Clear
5:53 PM 21.9 °F 13.4 °F 14.0 °F 72% 30.26 in 10.0 mi SW 6.9 mph - N/A   Clear
6:53 PM 21.0 °F 11.4 °F 14.0 °F 74% 30.27 in 10.0 mi SW 8.1 mph - N/A   Clear
7:53 PM 21.0 °F 11.4 °F 14.0 °F 74% 30.28 in 10.0 mi SW 8.1 mph - N/A   Clear
8:53 PM 23.0 °F 11.7 °F 15.1 °F 72% 30.27 in 10.0 mi WSW 11.5 mph - N/A   Clear
9:53 PM 24.1 °F 15.2 °F 16.0 °F 71% 30.27 in 10.0 mi WSW 8.1 mph - N/A   Clear
10:53 PM 23.0 °F 13.9 °F 16.0 °F 74% 30.28 in 10.0 mi WSW 8.1 mph - N/A   Clear